Time,TemperatureF,DewpointF,PressureIn,WindDirection,WindDirectionDegrees,WindSpeedMPH,WindSpeedGustMPH,Humidity,HourlyPrecipIn,Conditions,Clouds,dailyrainin,SoftwareType,DateUTC
2013-07-02 00:01:00,66.2,52.3,30.05,ESE,123,5.0,5.0,61,0.00,,,0.00,Wunderground v.1.15,2013-07-02 04:01:00,
2013-07-02 00:02:00,66.2,52.3,30.05,East,88,1.0,5.0,61,0.00,,,0.00,Wunderground v.1.15,2013-07-02 04:02:00,
2013-07-02 00:07:00,66.1,52.7,30.04,ESE,117,3.0,5.0,62,0.00,,,0.00,Wunderground v.1.15,2013-07-02 04:07:00,
2013-07-02 00:10:00,66.0,52.6,30.04,East,98,1.0,2.0,62,0.00,,,0.00,Wunderground v.1.15,2013-07-02 04:10:00,
2013-07-02 00:15:00,65.7,52.8,30.05,ESE,119,2.0,2.0,63,0.00,,,0.00,Wunderground v.1.15,2013-07-02 04:15:00,
2013-07-02 00:16:00,65.6,53.1,30.05,NE,35,0.0,2.0,64,0.00,,,0.00,Wunderground v.1.15,2013-07-02 04:16:00,
2013-07-02 00:21:00,65.5,52.6,30.05,ESE,108,0.0,1.0,63,0.00,,,0.00,Wunderground v.1.15,2013-07-02 04:21:00,
2013-07-02 00:27:00,65.5,52.6,30.05,ENE,65,0.0,2.0,63,0.00,,,0.00,Wunderground v.1.15,2013-07-02 04:27:00,
2013-07-02 00:32:00,65.4,52.9,30.05,ESE,118,0.0,1.0,64,0.00,,,0.00,Wunderground v.1.15,2013-07-02 04:32:00,
2013-07-02 00:37:00,65.3,52.4,30.05,ESE,111,5.0,5.0,63,0.00,,,0.00,Wunderground v.1.15,2013-07-02 04:37:00,
2013-07-02 00:43:00,65.3,52.4,30.05,East,94,3.0,4.0,63,0.00,,,0.00,Wunderground v.1.15,2013-07-02 04:43:00,
2013-07-02 00:48:00,65.3,52.4,30.05,SE,138,4.0,4.0,63,0.00,,,0.00,Wunderground v.1.15,2013-07-02 04:48:00,
2013-07-02 00:54:00,65.3,51.9,30.05,ESE,119,3.0,7.0,62,0.00,,,0.00,Wunderground v.1.15,2013-07-02 04:54:00,
2013-07-02 00:59:00,65.3,51.9,30.05,ESE,102,4.0,4.0,62,0.00,,,0.00,Wunderground v.1.15,2013-07-02 04:59:00,
2013-07-02 01:05:00,65.2,51.8,30.05,SE,125,1.0,5.0,62,0.00,,,0.00,Wunderground v.1.15,2013-07-02 05:05:00,
2013-07-02 01:10:00,65.1,51.3,30.05,East,86,5.0,5.0,61,0.00,,,0.00,Wunderground v.1.15,2013-07-02 05:10:00,
2013-07-02 01:16:00,65.1,51.3,30.05,ESE,115,4.0,6.0,61,0.00,,,0.00,Wunderground v.1.15,2013-07-02 05:16:00,
2013-07-02 01:21:00,65.1,51.3,30.05,East,101,3.0,4.0,61,0.00,,,0.00,Wunderground v.1.15,2013-07-02 05:21:00,
2013-07-02 01:26:00,65.0,51.2,30.05,SE,139,1.0,6.0,61,0.00,,,0.00,Wunderground v.1.15,2013-07-02 05:26:00,
2013-07-02 01:32:00,64.9,51.1,30.05,East,93,3.0,4.0,61,0.00,,,0.00,Wunderground v.1.15,2013-07-02 05:32:00,
2013-07-02 01:37:00,64.7,50.9,30.05,East,88,1.0,4.0,61,0.00,,,0.00,Wunderground v.1.15,2013-07-02 05:37:00,
2013-07-02 01:42:00,64.5,51.2,30.05,ESE,103,4.0,4.0,62,0.00,,,0.00,Wunderground v.1.15,2013-07-02 05:42:00,
2013-07-02 01:47:00,64.4,50.7,30.05,East,96,1.0,5.0,61,0.00,,,0.00,Wunderground v.1.15,2013-07-02 05:47:00,
2013-07-02 01:53:00,64.3,51.4,30.05,East,101,1.0,2.0,63,0.00,,,0.00,Wunderground v.1.15,2013-07-02 05:53:00,
2013-07-02 01:58:00,64.2,51.3,30.05,East,92,0.0,2.0,63,0.00,,,0.00,Wunderground v.1.15,2013-07-02 05:58:00,
2013-07-02 02:03:00,64.0,50.7,30.05,East,84,0.0,3.0,62,0.00,,,0.00,Wunderground v.1.15,2013-07-02 06:03:00,
2013-07-02 02:08:00,63.8,50.5,30.05,East,88,0.0,5.0,62,0.00,,,0.00,Wunderground v.1.15,2013-07-02 06:08:00,
2013-07-02 02:13:00,64.0,50.7,30.05,East,92,0.0,4.0,62,0.00,,,0.00,Wunderground v.1.15,2013-07-02 06:13:00,
2013-07-02 02:18:00,64.0,50.3,30.04,ENE,65,0.0,4.0,61,0.00,,,0.00,Wunderground v.1.15,2013-07-02 06:18:00,
2013-07-02 02:23:00,64.0,50.3,30.05,ENE,73,1.0,5.0,61,0.00,,,0.00,Wunderground v.1.15,2013-07-02 06:23:00,
2013-07-02 02:28:00,64.0,49.8,30.05,East,99,2.0,5.0,60,0.00,,,0.00,Wunderground v.1.15,2013-07-02 06:28:00,
2013-07-02 02:33:00,64.0,49.8,30.05,East,90,2.0,6.0,60,0.00,,,0.00,Wunderground v.1.15,2013-07-02 06:33:00,
2013-07-02 02:38:00,63.9,50.2,30.05,East,99,0.0,6.0,61,0.00,,,0.00,Wunderground v.1.15,2013-07-02 06:38:00,
2013-07-02 02:43:00,63.8,49.6,30.05,East,101,1.0,4.0,60,0.00,,,0.00,Wunderground v.1.15,2013-07-02 06:43:00,
2013-07-02 02:48:00,63.7,49.5,30.05,East,101,3.0,4.0,60,0.00,,,0.00,Wunderground v.1.15,2013-07-02 06:48:00,
2013-07-02 02:53:00,63.7,49.1,30.05,East,80,4.0,5.0,59,0.00,,,0.00,Wunderground v.1.15,2013-07-02 06:53:00,
2013-07-02 02:59:00,63.6,49.5,30.05,ESE,113,0.0,5.0,60,0.00,,,0.00,Wunderground v.1.15,2013-07-02 06:59:00,
2013-07-02 03:03:00,63.5,49.4,30.05,ESE,118,1.0,5.0,60,0.00,,,0.00,Wunderground v.1.15,2013-07-02 07:03:00,
2013-07-02 03:08:00,63.4,48.8,30.05,East,97,3.0,6.0,59,0.00,,,0.00,Wunderground v.1.15,2013-07-02 07:08:00,
2013-07-02 03:14:00,63.4,49.3,30.05,ESE,109,2.0,5.0,60,0.00,,,0.00,Wunderground v.1.15,2013-07-02 07:14:00,
2013-07-02 03:19:00,63.2,49.5,30.05,East,80,0.0,5.0,61,0.00,,,0.00,Wunderground v.1.15,2013-07-02 07:19:00,
2013-07-02 03:24:00,63.0,48.9,30.05,East,97,1.0,5.0,60,0.00,,,0.00,Wunderground v.1.15,2013-07-02 07:24:00,
2013-07-02 03:29:00,62.9,48.8,30.05,ESE,106,4.0,5.0,60,0.00,,,0.00,Wunderground v.1.15,2013-07-02 07:29:00,
2013-07-02 03:34:00,62.9,49.2,30.04,ESE,110,0.0,3.0,61,0.00,,,0.00,Wunderground v.1.15,2013-07-02 07:34:00,
2013-07-02 03:39:00,62.8,48.3,30.05,ENE,77,4.0,4.0,59,0.00,,,0.00,Wunderground v.1.15,2013-07-02 07:39:00,
2013-07-02 03:44:00,62.9,48.3,30.04,ENE,62,1.0,5.0,59,0.00,,,0.00,Wunderground v.1.15,2013-07-02 07:44:00,
2013-07-02 03:49:00,62.9,47.9,30.04,ESE,111,0.0,5.0,58,0.00,,,0.00,Wunderground v.1.15,2013-07-02 07:49:00,
2013-07-02 03:54:00,62.8,47.8,30.04,East,84,2.0,9.0,58,0.00,,,0.00,Wunderground v.1.15,2013-07-02 07:54:00,
2013-07-02 03:59:00,62.7,48.2,30.04,East,90,2.0,9.0,59,0.00,,,0.00,Wunderground v.1.15,2013-07-02 07:59:00,
2013-07-02 04:04:00,62.7,48.2,30.03,ESE,109,2.0,7.0,59,0.00,,,0.00,Wunderground v.1.15,2013-07-02 08:04:00,
2013-07-02 04:09:00,62.6,48.1,30.03,East,93,2.0,7.0,59,0.00,,,0.00,Wunderground v.1.15,2013-07-02 08:09:00,
2013-07-02 04:14:00,62.5,48.0,30.03,SE,142,3.0,6.0,59,0.00,,,0.00,Wunderground v.1.15,2013-07-02 08:14:00,
2013-07-02 04:19:00,62.4,47.9,30.03,ESE,103,1.0,6.0,59,0.00,,,0.00,Wunderground v.1.15,2013-07-02 08:19:00,
2013-07-02 04:24:00,62.4,48.3,30.03,East,87,1.0,6.0,60,0.00,,,0.00,Wunderground v.1.15,2013-07-02 08:24:00,
2013-07-02 04:29:00,62.3,48.7,30.03,ESE,120,1.0,6.0,61,0.00,,,0.00,Wunderground v.1.15,2013-07-02 08:29:00,
2013-07-02 04:34:00,62.2,48.1,30.03,ESE,106,2.0,5.0,60,0.00,,,0.00,Wunderground v.1.15,2013-07-02 08:34:00,
2013-07-02 04:39:00,62.2,48.1,30.03,East,91,1.0,2.0,60,0.00,,,0.00,Wunderground v.1.15,2013-07-02 08:39:00,
2013-07-02 04:44:00,62.2,48.1,30.03,East,101,4.0,6.0,60,0.00,,,0.00,Wunderground v.1.15,2013-07-02 08:44:00,
2013-07-02 04:49:00,62.2,48.6,30.03,ESE,109,2.0,2.0,61,0.00,,,0.00,Wunderground v.1.15,2013-07-02 08:49:00,
2013-07-02 04:54:00,62.1,48.5,30.03,East,89,0.0,6.0,61,0.00,,,0.00,Wunderground v.1.15,2013-07-02 08:54:00,
2013-07-02 04:59:00,62.1,48.5,30.03,ESE,109,0.0,2.0,61,0.00,,,0.00,Wunderground v.1.15,2013-07-02 08:59:00,
2013-07-02 05:04:00,61.9,48.7,30.03,East,82,0.0,4.0,62,0.00,,,0.00,Wunderground v.1.15,2013-07-02 09:04:00,
2013-07-02 05:09:00,61.8,49.1,30.04,East,90,0.0,1.0,63,0.00,,,0.00,Wunderground v.1.15,2013-07-02 09:09:00,
2013-07-02 05:14:00,61.7,49.0,30.03,ESE,107,0.0,5.0,63,0.00,,,0.00,Wunderground v.1.15,2013-07-02 09:14:00,
2013-07-02 05:19:00,61.7,49.4,30.03,ENE,78,1.0,3.0,64,0.00,,,0.00,Wunderground v.1.15,2013-07-02 09:19:00,
2013-07-02 05:24:00,61.7,49.4,30.03,ESE,121,4.0,6.0,64,0.00,,,0.00,Wunderground v.1.15,2013-07-02 09:24:00,
2013-07-02 05:29:00,61.7,49.8,30.03,ESE,111,5.0,6.0,65,0.00,,,0.00,Wunderground v.1.15,2013-07-02 09:29:00,
2013-07-02 05:34:00,61.6,50.1,30.03,East,88,0.0,7.0,66,0.00,,,0.00,Wunderground v.1.15,2013-07-02 09:34:00,
2013-07-02 05:40:00,61.5,50.8,30.03,ESE,120,2.0,5.0,68,0.00,,,0.00,Wunderground v.1.15,2013-07-02 09:40:00,
2013-07-02 05:45:00,61.5,50.8,30.03,ESE,113,0.0,5.0,68,0.00,,,0.00,Wunderground v.1.15,2013-07-02 09:45:00,
2013-07-02 05:50:00,61.4,51.1,30.03,ESE,109,1.0,6.0,69,0.00,,,0.00,Wunderground v.1.15,2013-07-02 09:50:00,
2013-07-02 05:55:00,61.4,51.1,30.03,East,83,0.0,6.0,69,0.00,,,0.00,Wunderground v.1.15,2013-07-02 09:55:00,
2013-07-02 06:00:00,61.4,51.5,30.03,NW,311,3.0,6.0,70,0.00,,,0.00,Wunderground v.1.15,2013-07-02 10:00:00,
2013-07-02 06:05:00,61.4,51.9,30.03,East,98,0.0,6.0,71,0.00,,,0.00,Wunderground v.1.15,2013-07-02 10:05:00,
2013-07-02 06:10:00,61.4,51.9,30.03,East,101,1.0,2.0,71,0.00,,,0.00,Wunderground v.1.15,2013-07-02 10:10:00,
2013-07-02 06:15:00,61.4,52.3,30.04,East,98,2.0,6.0,72,0.00,,,0.00,Wunderground v.1.15,2013-07-02 10:15:00,
2013-07-02 06:20:00,61.4,52.3,30.03,ESE,116,0.0,3.0,72,0.00,,,0.00,Wunderground v.1.15,2013-07-02 10:20:00,
2013-07-02 06:25:00,61.3,52.6,30.04,SE,125,0.0,3.0,73,0.00,,,0.00,Wunderground v.1.15,2013-07-02 10:25:00,
2013-07-02 06:30:00,61.3,52.9,30.04,ESE,105,0.0,2.0,74,0.00,,,0.00,Wunderground v.1.15,2013-07-02 10:30:00,
2013-07-02 06:35:00,61.3,52.9,30.04,ESE,109,2.0,6.0,74,0.00,,,0.00,Wunderground v.1.15,2013-07-02 10:35:00,
2013-07-02 06:40:00,61.3,53.3,30.04,East,87,1.0,2.0,75,0.00,,,0.00,Wunderground v.1.15,2013-07-02 10:40:00,
2013-07-02 06:45:00,61.3,53.7,30.04,ESE,121,1.0,6.0,76,0.00,,,0.00,Wunderground v.1.15,2013-07-02 10:45:00,
2013-07-02 06:50:00,61.3,54.0,30.04,East,100,0.0,3.0,77,0.00,,,0.00,Wunderground v.1.15,2013-07-02 10:50:00,
2013-07-02 06:55:00,61.3,54.7,30.05,ENE,76,0.0,4.0,79,0.00,,,0.00,Wunderground v.1.15,2013-07-02 10:55:00,
2013-07-02 07:00:00,61.2,55.0,30.05,ESE,117,1.0,3.0,80,0.00,,,0.00,Wunderground v.1.15,2013-07-02 11:00:00,
2013-07-02 07:05:00,61.3,55.1,30.05,East,99,2.0,5.0,80,0.00,,,0.00,Wunderground v.1.15,2013-07-02 11:05:00,
2013-07-02 07:10:00,61.3,55.4,30.05,East,101,6.0,9.0,81,0.00,,,0.00,Wunderground v.1.15,2013-07-02 11:10:00,
2013-07-02 07:15:00,61.3,55.8,30.05,East,84,4.0,9.0,82,0.00,,,0.00,Wunderground v.1.15,2013-07-02 11:15:00,
2013-07-02 07:20:00,61.2,55.7,30.05,ESE,113,5.0,7.0,82,0.00,,,0.00,Wunderground v.1.15,2013-07-02 11:20:00,
2013-07-02 07:25:00,61.2,56.0,30.04,ESE,112,2.0,9.0,83,0.00,,,0.00,Wunderground v.1.15,2013-07-02 11:25:00,
2013-07-02 07:30:00,61.1,55.9,30.05,ESE,108,5.0,6.0,83,0.00,,,0.00,Wunderground v.1.15,2013-07-02 11:30:00,
2013-07-02 07:36:00,61.1,55.9,30.05,ENE,58,5.0,10.0,83,0.00,,,0.00,Wunderground v.1.15,2013-07-02 11:36:00,
2013-07-02 07:41:00,61.1,56.2,30.05,ENE,61,5.0,6.0,84,0.00,,,0.00,Wunderground v.1.15,2013-07-02 11:41:00,
2013-07-02 07:46:00,61.1,56.2,30.05,ESE,109,4.0,7.0,84,0.00,,,0.00,Wunderground v.1.15,2013-07-02 11:46:00,
2013-07-02 07:51:00,61.1,56.9,30.05,SE,131,2.0,3.0,86,0.00,,,0.00,Wunderground v.1.15,2013-07-02 11:51:00,
2013-07-02 07:56:00,61.1,56.6,30.05,SE,129,1.0,9.0,85,0.00,,,0.00,Wunderground v.1.15,2013-07-02 11:56:00,
2013-07-02 08:01:00,61.0,56.5,30.05,ESE,119,3.0,6.0,85,0.00,,,0.00,Wunderground v.1.15,2013-07-02 12:01:00,
2013-07-02 08:06:00,60.9,56.4,30.05,ESE,122,5.0,9.0,85,0.00,,,0.00,Wunderground v.1.15,2013-07-02 12:06:00,
2013-07-02 08:11:00,60.8,56.3,30.05,ESE,109,4.0,5.0,85,0.00,,,0.00,Wunderground v.1.15,2013-07-02 12:11:00,
2013-07-02 08:16:00,60.9,56.4,30.05,NW,315,0.0,5.0,85,0.00,,,0.00,Wunderground v.1.15,2013-07-02 12:16:00,
2013-07-02 08:21:00,60.9,56.4,30.05,ESE,102,3.0,7.0,85,0.00,,,0.00,Wunderground v.1.15,2013-07-02 12:21:00,
2013-07-02 08:26:00,60.9,57.0,30.05,East,90,0.0,7.0,87,0.00,,,0.00,Wunderground v.1.15,2013-07-02 12:26:00,
2013-07-02 08:31:00,61.0,56.5,30.06,ESE,115,0.0,5.0,85,0.00,,,0.00,Wunderground v.1.15,2013-07-02 12:31:00,
2013-07-02 08:36:00,61.0,56.5,30.06,SE,141,3.0,7.0,85,0.00,,,0.00,Wunderground v.1.15,2013-07-02 12:36:00,
2013-07-02 08:41:00,61.0,56.5,30.06,ESE,103,2.0,6.0,85,0.00,,,0.00,Wunderground v.1.15,2013-07-02 12:41:00,
2013-07-02 08:46:00,61.0,56.5,30.06,ESE,109,0.0,6.0,85,0.00,,,0.00,Wunderground v.1.15,2013-07-02 12:46:00,
2013-07-02 08:51:00,60.9,56.4,30.06,ESE,117,0.0,5.0,85,0.00,,,0.00,Wunderground v.1.15,2013-07-02 12:51:00,
2013-07-02 08:56:00,60.9,56.4,30.06,ESE,106,0.0,7.0,85,0.00,,,0.00,Wunderground v.1.15,2013-07-02 12:56:00,
2013-07-02 09:01:00,60.8,56.3,30.07,ESE,102,3.0,5.0,85,0.00,,,0.00,Wunderground v.1.15,2013-07-02 13:01:00,
2013-07-02 09:06:00,60.8,56.3,30.07,ENE,72,5.0,5.0,85,0.00,,,0.00,Wunderground v.1.15,2013-07-02 13:06:00,
2013-07-02 09:11:00,60.9,56.7,30.07,SE,124,4.0,4.0,86,0.00,,,0.00,Wunderground v.1.15,2013-07-02 13:11:00,
2013-07-02 09:16:00,60.9,56.4,30.07,ESE,113,5.0,6.0,85,0.00,,,0.00,Wunderground v.1.15,2013-07-02 13:16:00,
2013-07-02 09:21:00,61.1,56.9,30.06,East,99,0.0,4.0,86,0.00,,,0.00,Wunderground v.1.15,2013-07-02 13:21:00,
2013-07-02 09:26:00,61.1,56.9,30.07,ESE,105,1.0,7.0,86,0.00,,,0.00,Wunderground v.1.15,2013-07-02 13:26:00,
2013-07-02 09:31:00,61.1,57.5,30.07,SE,145,0.0,5.0,88,0.00,,,0.00,Wunderground v.1.15,2013-07-02 13:31:00,
2013-07-02 09:37:00,60.9,57.6,30.07,ENE,69,5.0,6.0,89,0.00,,,0.00,Wunderground v.1.15,2013-07-02 13:37:00,
2013-07-02 09:42:00,60.7,57.4,30.07,East,89,2.0,6.0,89,0.00,,,0.00,Wunderground v.1.15,2013-07-02 13:42:00,
2013-07-02 09:47:00,60.5,57.6,30.07,ESE,115,3.0,6.0,90,0.00,,,0.00,Wunderground v.1.15,2013-07-02 13:47:00,
2013-07-02 09:52:00,60.3,57.7,30.07,ESE,117,4.0,5.0,91,0.00,,,0.00,Wunderground v.1.15,2013-07-02 13:52:00,
2013-07-02 09:57:00,60.1,57.5,30.07,East,96,3.0,5.0,91,0.00,,,0.01,Wunderground v.1.15,2013-07-02 13:57:00,
2013-07-02 10:02:00,59.9,57.6,30.07,ESE,121,2.0,5.0,92,0.16,,,0.02,Wunderground v.1.15,2013-07-02 14:02:00,
2013-07-02 10:07:00,59.6,57.3,30.07,ESE,107,4.0,11.0,92,0.18,,,0.04,Wunderground v.1.15,2013-07-02 14:07:00,
2013-07-02 10:12:00,59.5,57.5,30.07,ESE,119,6.0,7.0,93,0.10,,,0.05,Wunderground v.1.15,2013-07-02 14:12:00,
2013-07-02 10:17:00,59.3,57.6,30.07,ESE,113,3.0,7.0,94,0.16,,,0.06,Wunderground v.1.15,2013-07-02 14:17:00,
2013-07-02 10:22:00,59.1,57.4,30.07,ESE,111,3.0,5.0,94,0.10,,,0.07,Wunderground v.1.15,2013-07-02 14:22:00,
2013-07-02 10:27:00,58.9,57.2,30.07,ESE,110,6.0,6.0,94,0.10,,,0.07,Wunderground v.1.15,2013-07-02 14:27:00,
2013-07-02 10:32:00,58.8,57.1,30.07,East,86,2.0,2.0,94,0.22,,,0.08,Wunderground v.1.15,2013-07-02 14:32:00,
2013-07-02 10:37:00,58.6,56.9,30.07,ESE,112,0.0,5.0,94,0.19,,,0.10,Wunderground v.1.15,2013-07-02 14:37:00,
2013-07-02 10:42:00,58.6,57.2,30.07,ESE,115,0.0,3.0,95,0.17,,,0.12,Wunderground v.1.15,2013-07-02 14:42:00,
2013-07-02 10:47:00,58.6,57.5,30.07,ESE,115,0.0,3.0,96,0.23,,,0.14,Wunderground v.1.15,2013-07-02 14:47:00,
2013-07-02 10:52:00,58.6,57.5,30.07,East,94,1.0,3.0,96,0.19,,,0.15,Wunderground v.1.15,2013-07-02 14:52:00,
2013-07-02 10:57:00,58.5,57.4,30.07,NE,52,0.0,3.0,96,0.15,,,0.17,Wunderground v.1.15,2013-07-02 14:57:00,
2013-07-02 11:02:00,58.2,56.8,30.07,NW,313,0.0,2.0,95,0.16,,,0.18,Wunderground v.1.15,2013-07-02 15:02:00,
2013-07-02 11:07:00,58.1,57.0,30.06,ESE,103,0.0,3.0,96,0.10,,,0.19,Wunderground v.1.15,2013-07-02 15:07:00,
2013-07-02 11:12:00,58.0,56.9,30.07,ENE,73,0.0,3.0,96,0.15,,,0.20,Wunderground v.1.15,2013-07-02 15:12:00,
2013-07-02 11:17:00,57.5,56.4,30.07,West,271,0.0,3.0,96,0.16,,,0.22,Wunderground v.1.15,2013-07-02 15:17:00,
2013-07-02 11:22:00,56.9,55.8,30.07,SW,218,1.0,3.0,96,0.19,,,0.23,Wunderground v.1.15,2013-07-02 15:22:00,
2013-07-02 11:27:00,56.7,55.9,30.07,SW,218,0.0,3.0,97,0.23,,,0.25,Wunderground v.1.15,2013-07-02 15:27:00,
2013-07-02 11:32:00,56.6,55.8,30.07,SW,227,0.0,2.0,97,0.27,,,0.27,Wunderground v.1.15,2013-07-02 15:32:00,
2013-07-02 11:37:00,56.6,55.8,30.07,SW,236,2.0,2.0,97,0.08,,,0.27,Wunderground v.1.15,2013-07-02 15:37:00,
2013-07-02 11:42:00,56.6,56.0,30.07,WSW,246,0.0,3.0,98,0.05,,,0.27,Wunderground v.1.15,2013-07-02 15:42:00,
2013-07-02 11:47:00,56.3,55.5,30.07,North,360,2.0,5.0,97,0.04,,,0.28,Wunderground v.1.15,2013-07-02 15:47:00,
2013-07-02 11:52:00,56.0,55.2,30.07,NNW,338,2.0,5.0,97,0.04,,,0.28,Wunderground v.1.15,2013-07-02 15:52:00,
2013-07-02 11:58:00,56.0,55.2,30.07,NNW,345,1.0,5.0,97,0.04,,,0.28,Wunderground v.1.15,2013-07-02 15:58:00,
2013-07-02 12:03:00,56.0,55.2,30.07,NNW,330,1.0,5.0,97,0.04,,,0.28,Wunderground v.1.15,2013-07-02 16:03:00,
2013-07-02 12:08:00,56.4,55.8,30.07,NNW,337,3.0,5.0,98,0.00,,,0.28,Wunderground v.1.15,2013-07-02 16:08:00,
2013-07-02 12:13:00,56.3,55.5,30.06,NNW,344,0.0,5.0,97,0.00,,,0.28,Wunderground v.1.15,2013-07-02 16:13:00,
2013-07-02 12:18:00,56.7,56.1,30.06,North,9,4.0,5.0,98,0.00,,,0.28,Wunderground v.1.15,2013-07-02 16:18:00,
2013-07-02 12:23:00,56.8,56.2,30.06,WNW,289,1.0,7.0,98,0.00,,,0.28,Wunderground v.1.15,2013-07-02 16:23:00,
2013-07-02 12:28:00,56.6,56.0,30.06,North,355,3.0,7.0,98,0.00,,,0.28,Wunderground v.1.15,2013-07-02 16:28:00,
2013-07-02 12:33:00,56.7,56.1,30.07,NW,314,1.0,6.0,98,0.00,,,0.28,Wunderground v.1.15,2013-07-02 16:33:00,
2013-07-02 12:38:00,56.9,56.3,30.07,NNW,329,2.0,7.0,98,0.00,,,0.28,Wunderground v.1.15,2013-07-02 16:38:00,
2013-07-02 12:43:00,57.0,56.4,30.07,NNW,341,2.0,6.0,98,0.00,,,0.28,Wunderground v.1.15,2013-07-02 16:43:00,
2013-07-02 12:48:00,57.0,56.4,30.07,NNE,14,2.0,6.0,98,0.00,,,0.28,Wunderground v.1.15,2013-07-02 16:48:00,
2013-07-02 12:53:00,56.9,56.1,30.07,NW,324,4.0,7.0,97,0.00,,,0.28,Wunderground v.1.15,2013-07-02 16:53:00,
2013-07-02 12:58:00,56.9,56.1,30.07,NW,309,0.0,7.0,97,0.00,,,0.28,Wunderground v.1.15,2013-07-02 16:58:00,
2013-07-02 13:03:00,56.8,56.0,30.07,NNE,16,0.0,7.0,97,0.00,,,0.28,Wunderground v.1.15,2013-07-02 17:03:00,
2013-07-02 13:08:00,56.8,56.0,30.07,NNW,337,3.0,7.0,97,0.00,,,0.28,Wunderground v.1.15,2013-07-02 17:08:00,
2013-07-02 13:13:00,56.9,56.3,30.07,North,355,1.0,6.0,98,0.19,,,0.30,Wunderground v.1.15,2013-07-02 17:13:00,
2013-07-02 13:18:00,57.3,56.7,30.07,NNE,18,2.0,6.0,98,0.37,,,0.33,Wunderground v.1.15,2013-07-02 17:18:00,
2013-07-02 13:23:00,57.3,56.7,30.07,NNE,32,0.0,5.0,98,0.27,,,0.35,Wunderground v.1.15,2013-07-02 17:23:00,
2013-07-02 13:28:00,57.3,56.7,30.07,North,9,2.0,5.0,98,0.32,,,0.38,Wunderground v.1.15,2013-07-02 17:28:00,
2013-07-02 13:33:00,57.1,56.5,30.07,NNW,348,3.0,6.0,98,0.11,,,0.38,Wunderground v.1.15,2013-07-02 17:33:00,
2013-07-02 13:38:00,57.3,56.7,30.07,NNE,12,2.0,6.0,98,0.07,,,0.39,Wunderground v.1.15,2013-07-02 17:38:00,
2013-07-02 13:43:00,57.2,56.6,30.07,North,360,3.0,3.0,98,0.14,,,0.40,Wunderground v.1.15,2013-07-02 17:43:00,
2013-07-02 13:48:00,57.1,56.5,30.07,NE,38,2.0,5.0,98,0.16,,,0.41,Wunderground v.1.15,2013-07-02 17:48:00,
2013-07-02 13:53:00,57.4,56.8,30.07,North,355,1.0,4.0,98,0.11,,,0.42,Wunderground v.1.15,2013-07-02 17:53:00,
2013-07-02 13:58:00,57.5,56.9,30.06,North,360,3.0,4.0,98,0.07,,,0.42,Wunderground v.1.15,2013-07-02 17:58:00,
2013-07-02 14:03:00,57.3,56.7,30.06,North,9,1.0,4.0,98,0.04,,,0.42,Wunderground v.1.15,2013-07-02 18:03:00,
2013-07-02 14:08:00,57.1,56.5,30.06,NNW,331,2.0,7.0,98,0.00,,,0.42,Wunderground v.1.15,2013-07-02 18:08:00,
2013-07-02 14:13:00,57.4,56.8,30.06,NNE,13,2.0,4.0,98,0.00,,,0.42,Wunderground v.1.15,2013-07-02 18:13:00,
2013-07-02 14:18:00,57.4,56.8,30.06,NNW,342,1.0,7.0,98,0.00,,,0.42,Wunderground v.1.15,2013-07-02 18:18:00,
2013-07-02 14:23:00,57.5,56.9,30.06,East,95,1.0,6.0,98,0.00,,,0.42,Wunderground v.1.15,2013-07-02 18:23:00,
2013-07-02 14:28:00,57.8,57.2,30.06,NE,49,0.0,9.0,98,0.00,,,0.42,Wunderground v.1.15,2013-07-02 18:28:00,
2013-07-02 14:33:00,57.9,57.3,30.06,NNE,19,1.0,5.0,98,0.00,,,0.42,Wunderground v.1.15,2013-07-02 18:33:00,
2013-07-02 14:38:00,57.9,57.3,30.06,North,360,3.0,6.0,98,0.00,,,0.42,Wunderground v.1.15,2013-07-02 18:38:00,
2013-07-02 14:43:00,57.8,57.2,30.06,WNW,293,0.0,9.0,98,0.00,,,0.42,Wunderground v.1.15,2013-07-02 18:43:00,
2013-07-02 14:48:00,57.6,57.0,30.06,NW,310,1.0,9.0,98,0.00,,,0.42,Wunderground v.1.15,2013-07-02 18:48:00,
2013-07-02 14:54:00,57.2,56.6,30.06,NNE,21,0.0,5.0,98,0.00,,,0.42,Wunderground v.1.15,2013-07-02 18:54:00,
2013-07-02 14:59:00,57.1,56.5,30.05,NNE,13,1.0,5.0,98,0.00,,,0.42,Wunderground v.1.15,2013-07-02 18:59:00,
2013-07-02 15:04:00,56.9,56.3,30.06,North,9,2.0,6.0,98,0.00,,,0.42,Wunderground v.1.15,2013-07-02 19:04:00,
2013-07-02 15:09:00,57.2,56.9,30.05,North,9,1.0,6.0,99,0.00,,,0.42,Wunderground v.1.15,2013-07-02 19:09:00,
2013-07-02 15:14:00,57.7,57.4,30.05,North,9,5.0,5.0,99,0.00,,,0.42,Wunderground v.1.15,2013-07-02 19:14:00,
2013-07-02 15:19:00,57.9,57.6,30.05,North,360,3.0,5.0,99,0.00,,,0.42,Wunderground v.1.15,2013-07-02 19:19:00,
2013-07-02 15:24:00,58.2,57.9,30.05,North,360,2.0,4.0,99,0.00,,,0.43,Wunderground v.1.15,2013-07-02 19:24:00,
2013-07-02 15:29:00,58.4,58.1,30.05,ESE,113,1.0,7.0,99,0.15,,,0.44,Wunderground v.1.15,2013-07-02 19:29:00,
2013-07-02 15:34:00,58.4,58.1,30.05,NNW,343,1.0,4.0,99,0.09,,,0.44,Wunderground v.1.15,2013-07-02 19:34:00,
2013-07-02 15:39:00,58.5,58.2,30.05,NNE,28,3.0,7.0,99,0.05,,,0.44,Wunderground v.1.15,2013-07-02 19:39:00,
2013-07-02 15:44:00,58.7,58.4,30.05,NE,39,3.0,9.0,99,0.04,,,0.44,Wunderground v.1.15,2013-07-02 19:44:00,
2013-07-02 15:49:00,58.8,58.5,30.05,ENE,61,2.0,9.0,99,0.00,,,0.44,Wunderground v.1.15,2013-07-02 19:49:00,
2013-07-02 15:54:00,58.9,58.6,30.05,ENE,73,2.0,9.0,99,0.00,,,0.44,Wunderground v.1.15,2013-07-02 19:54:00,
2013-07-02 15:59:00,59.0,58.7,30.05,ESE,102,0.0,9.0,99,0.00,,,0.44,Wunderground v.1.15,2013-07-02 19:59:00,
2013-07-02 16:04:00,59.1,58.8,30.05,NNW,338,3.0,6.0,99,0.00,,,0.44,Wunderground v.1.15,2013-07-02 20:04:00,
2013-07-02 16:09:00,59.0,58.4,30.05,ENE,67,2.0,9.0,98,0.00,,,0.44,Wunderground v.1.15,2013-07-02 20:09:00,
2013-07-02 16:14:00,59.1,58.5,30.05,NW,315,10.0,10.0,98,0.00,,,0.45,Wunderground v.1.15,2013-07-02 20:14:00,
2013-07-02 16:19:00,59.0,58.4,30.05,NE,41,2.0,10.0,98,0.00,,,0.45,Wunderground v.1.15,2013-07-02 20:19:00,
2013-07-02 16:24:00,59.0,58.4,30.05,WNW,293,5.0,7.0,98,0.00,,,0.45,Wunderground v.1.15,2013-07-02 20:24:00,
2013-07-02 16:29:00,59.1,58.5,30.05,North,11,7.0,7.0,98,0.00,,,0.45,Wunderground v.1.15,2013-07-02 20:29:00,
2013-07-02 16:34:00,59.1,58.8,30.05,North,360,3.0,10.0,99,0.00,,,0.45,Wunderground v.1.15,2013-07-02 20:34:00,
2013-07-02 16:39:00,59.1,58.5,30.05,North,9,2.0,3.0,98,0.00,,,0.45,Wunderground v.1.15,2013-07-02 20:39:00,
2013-07-02 16:44:00,58.9,58.3,30.05,West,275,1.0,5.0,98,0.00,,,0.45,Wunderground v.1.15,2013-07-02 20:44:00,
2013-07-02 16:49:00,58.7,58.1,30.05,SW,227,0.0,2.0,98,0.00,,,0.46,Wunderground v.1.15,2013-07-02 20:49:00,
2013-07-02 16:54:00,58.5,57.9,30.05,NNE,19,1.0,6.0,98,0.00,,,0.46,Wunderground v.1.15,2013-07-02 20:54:00,
2013-07-02 16:59:00,58.4,57.8,30.05,NNW,336,5.0,5.0,98,0.07,,,0.47,Wunderground v.1.15,2013-07-02 20:59:00,
2013-07-02 17:04:00,58.5,57.9,30.05,NNE,26,2.0,5.0,98,0.10,,,0.48,Wunderground v.1.15,2013-07-02 21:04:00,
2013-07-02 17:09:00,58.3,57.7,30.05,North,355,3.0,3.0,98,0.07,,,0.48,Wunderground v.1.15,2013-07-02 21:09:00,
2013-07-02 17:15:00,58.2,57.9,30.05,NNE,23,1.0,7.0,99,0.04,,,0.48,Wunderground v.1.15,2013-07-02 21:15:00,
2013-07-02 17:20:00,58.2,57.9,30.05,NNW,336,0.0,3.0,99,0.00,,,0.48,Wunderground v.1.15,2013-07-02 21:20:00,
2013-07-02 17:25:00,58.1,57.8,30.05,North,355,0.0,5.0,99,0.00,,,0.48,Wunderground v.1.15,2013-07-02 21:25:00,
2013-07-02 17:30:00,58.0,57.7,30.05,NNE,30,2.0,5.0,99,0.00,,,0.48,Wunderground v.1.15,2013-07-02 21:30:00,
2013-07-02 17:35:00,58.0,57.7,30.05,NNW,344,2.0,5.0,99,0.00,,,0.49,Wunderground v.1.15,2013-07-02 21:35:00,
2013-07-02 17:40:00,57.7,57.4,30.05,NNE,18,2.0,3.0,99,0.00,,,0.49,Wunderground v.1.15,2013-07-02 21:40:00,
2013-07-02 17:45:00,57.8,57.5,30.05,North,355,4.0,7.0,99,0.00,,,0.49,Wunderground v.1.15,2013-07-02 21:45:00,
2013-07-02 17:50:00,57.8,57.5,30.05,NNW,331,1.0,3.0,99,0.00,,,0.49,Wunderground v.1.15,2013-07-02 21:50:00,
2013-07-02 17:55:00,57.7,57.4,30.05,NE,48,0.0,6.0,99,0.00,,,0.49,Wunderground v.1.15,2013-07-02 21:55:00,
2013-07-02 18:00:00,57.8,57.5,30.05,NW,311,0.0,3.0,99,0.00,,,0.50,Wunderground v.1.15,2013-07-02 22:00:00,
2013-07-02 18:05:00,57.8,57.5,30.05,NNW,346,1.0,5.0,99,0.00,,,0.50,Wunderground v.1.15,2013-07-02 22:05:00,
2013-07-02 18:10:00,57.7,57.4,30.05,North,9,3.0,3.0,99,0.00,,,0.50,Wunderground v.1.15,2013-07-02 22:10:00,
2013-07-02 18:15:00,57.5,57.2,30.05,North,9,0.0,5.0,99,0.00,,,0.50,Wunderground v.1.15,2013-07-02 22:15:00,
2013-07-02 18:20:00,57.1,56.8,30.05,ENE,60,3.0,3.0,99,0.00,,,0.50,Wunderground v.1.15,2013-07-02 22:20:00,
2013-07-02 18:25:00,57.2,56.9,30.05,NNW,341,3.0,4.0,99,0.00,,,0.51,Wunderground v.1.15,2013-07-02 22:25:00,
2013-07-02 18:30:00,57.2,56.9,30.05,North,10,1.0,5.0,99,0.15,,,0.52,Wunderground v.1.15,2013-07-02 22:30:00,
2013-07-02 18:35:00,57.0,56.7,30.05,NW,325,2.0,6.0,99,0.10,,,0.53,Wunderground v.1.15,2013-07-02 22:35:00,
2013-07-02 18:40:00,56.9,56.6,30.05,NNW,339,2.0,4.0,99,0.07,,,0.53,Wunderground v.1.15,2013-07-02 22:40:00,
2013-07-02 18:45:00,57.1,56.8,30.05,South,186,1.0,4.0,99,0.04,,,0.53,Wunderground v.1.15,2013-07-02 22:45:00,
2013-07-02 18:50:00,57.2,56.9,30.05,NE,34,0.0,2.0,99,0.00,,,0.53,Wunderground v.1.15,2013-07-02 22:50:00,
2013-07-02 18:55:00,56.7,56.4,30.05,East,101,1.0,3.0,99,0.00,,,0.53,Wunderground v.1.15,2013-07-02 22:55:00,
2013-07-02 19:00:00,56.1,55.8,30.05,ENE,71,0.0,1.0,99,0.00,,,0.53,Wunderground v.1.15,2013-07-02 23:00:00,
2013-07-02 19:05:00,56.1,55.8,30.05,NE,43,0.0,6.0,99,0.00,,,0.53,Wunderground v.1.15,2013-07-02 23:05:00,
2013-07-02 19:10:00,56.9,56.6,30.05,NE,43,0.0,4.0,99,0.00,,,0.53,Wunderground v.1.15,2013-07-02 23:10:00,
2013-07-02 19:15:00,57.3,57.0,30.05,NNE,29,0.0,4.0,99,0.00,,,0.53,Wunderground v.1.15,2013-07-02 23:15:00,
2013-07-02 19:20:00,57.4,57.1,30.05,West,264,3.0,4.0,99,0.00,,,0.54,Wunderground v.1.15,2013-07-02 23:20:00,
2013-07-02 19:25:00,57.7,57.7,30.05,North,360,2.0,5.0,100,0.00,,,0.54,Wunderground v.1.15,2013-07-02 23:25:00,
2013-07-02 19:29:00,57.9,57.6,30.05,NNW,338,2.0,7.0,99,0.00,,,0.54,Wunderground v.1.15,2013-07-02 23:29:00,
2013-07-02 19:34:00,57.6,57.6,30.05,NNE,30,2.0,9.0,100,0.00,,,0.54,Wunderground v.1.15,2013-07-02 23:34:00,
2013-07-02 19:39:00,57.2,56.9,30.05,ENE,70,2.0,9.0,99,0.00,,,0.54,Wunderground v.1.15,2013-07-02 23:39:00,
2013-07-02 19:44:00,57.5,57.2,30.05,NNE,17,0.0,7.0,99,0.00,,,0.54,Wunderground v.1.15,2013-07-02 23:44:00,
2013-07-02 19:49:00,57.8,57.8,30.05,NE,42,5.0,9.0,100,0.00,,,0.54,Wunderground v.1.15,2013-07-02 23:49:00,
2013-07-02 19:54:00,58.1,57.8,30.05,NE,37,4.0,6.0,99,0.00,,,0.54,Wunderground v.1.15,2013-07-02 23:54:00,
2013-07-02 19:59:00,58.3,58.3,30.05,North,10,3.0,6.0,100,0.00,,,0.54,Wunderground v.1.15,2013-07-02 23:59:00,
2013-07-02 20:01:00,58.5,58.5,30.05,NNE,13,2.0,4.0,100,0.00,,,0.54,Wunderground v.1.15,2013-07-03 00:01:00,
2013-07-02 20:06:00,58.6,58.6,30.06,East,92,1.0,7.0,100,0.00,,,0.54,Wunderground v.1.15,2013-07-03 00:06:00,
2013-07-02 20:11:00,58.7,58.7,30.06,North,11,1.0,4.0,100,0.00,,,0.54,Wunderground v.1.15,2013-07-03 00:11:00,
2013-07-02 20:16:00,58.7,58.7,30.06,NNW,348,1.0,8.0,100,0.00,,,0.54,Wunderground v.1.15,2013-07-03 00:16:00,
2013-07-02 20:21:00,58.8,58.8,30.06,East,83,1.0,7.0,100,0.00,,,0.54,Wunderground v.1.15,2013-07-03 00:21:00,
2013-07-02 20:23:00,58.9,58.9,30.06,ENE,63,0.0,7.0,100,0.00,,,0.54,Wunderground v.1.15,2013-07-03 00:23:00,
2013-07-02 20:25:00,58.9,58.9,30.06,ENE,77,0.0,7.0,100,0.00,,,0.54,Wunderground v.1.15,2013-07-03 00:25:00,
2013-07-02 20:28:00,58.9,58.9,30.06,East,89,0.0,7.0,100,0.00,,,0.54,Wunderground v.1.15,2013-07-03 00:28:00,
2013-07-02 20:33:00,58.9,58.9,30.06,ESE,108,0.0,3.0,100,0.00,,,0.54,Wunderground v.1.15,2013-07-03 00:33:00,
2013-07-02 20:38:00,58.9,58.9,30.06,ESE,108,0.0,3.0,100,0.00,,,0.54,Wunderground v.1.15,2013-07-03 00:38:00,
2013-07-02 20:43:00,58.9,58.9,30.06,NNE,18,5.0,5.0,100,0.00,,,0.54,Wunderground v.1.15,2013-07-03 00:43:00,
2013-07-02 20:48:00,58.9,58.9,30.06,East,92,1.0,5.0,100,0.00,,,0.54,Wunderground v.1.15,2013-07-03 00:48:00,
2013-07-02 20:53:00,58.9,58.6,30.05,ESE,113,1.0,7.0,99,0.00,,,0.54,Wunderground v.1.15,2013-07-03 00:53:00,
2013-07-02 20:58:00,58.9,58.6,30.05,ESE,114,3.0,7.0,99,0.00,,,0.54,Wunderground v.1.15,2013-07-03 00:58:00,
2013-07-02 21:00:00,58.9,58.6,30.05,ESE,113,1.0,2.0,99,0.00,,,0.54,Wunderground v.1.15,2013-07-03 01:00:00,
2013-07-02 21:03:00,58.9,58.6,30.05,ESE,102,2.0,4.0,99,0.00,,,0.54,Wunderground v.1.15,2013-07-03 01:03:00,
2013-07-02 21:08:00,59.0,58.7,30.05,ESE,123,2.0,4.0,99,0.00,,,0.54,Wunderground v.1.15,2013-07-03 01:08:00,
2013-07-02 21:09:00,59.0,58.7,30.05,East,95,3.0,4.0,99,0.00,,,0.54,Wunderground v.1.15,2013-07-03 01:09:00,
2013-07-02 21:14:00,59.1,58.8,30.04,East,101,1.0,3.0,99,0.00,,,0.54,Wunderground v.1.15,2013-07-03 01:14:00,
2013-07-02 21:19:00,59.1,58.8,30.04,ESE,104,0.0,4.0,99,0.00,,,0.54,Wunderground v.1.15,2013-07-03 01:19:00,
2013-07-02 21:24:00,59.2,58.9,30.04,East,83,0.0,6.0,99,0.00,,,0.54,Wunderground v.1.15,2013-07-03 01:24:00,
2013-07-02 21:26:00,59.2,58.9,30.04,NNE,13,2.0,6.0,99,0.00,,,0.54,Wunderground v.1.15,2013-07-03 01:26:00,
2013-07-02 21:31:00,59.1,58.8,30.04,NNE,19,0.0,2.0,99,0.00,,,0.54,Wunderground v.1.15,2013-07-03 01:31:00,
2013-07-02 21:36:00,59.1,58.8,30.04,West,275,0.0,4.0,99,0.00,,,0.54,Wunderground v.1.15,2013-07-03 01:36:00,
2013-07-02 21:41:00,59.1,58.8,30.04,NNE,30,0.0,1.0,99,0.00,,,0.54,Wunderground v.1.15,2013-07-03 01:41:00,
2013-07-02 21:46:00,59.1,58.8,30.04,ESE,109,0.0,3.0,99,0.00,,,0.54,Wunderground v.1.15,2013-07-03 01:46:00,
2013-07-02 21:49:00,59.1,58.8,30.04,ESE,109,0.0,3.0,99,0.00,,,0.54,Wunderground v.1.15,2013-07-03 01:49:00,
2013-07-02 21:50:00,59.1,58.8,30.04,ESE,109,1.0,4.0,99,0.00,,,0.54,Wunderground v.1.15,2013-07-03 01:50:00,
2013-07-02 21:55:00,59.1,58.8,30.04,ESE,109,0.0,4.0,99,0.00,,,0.54,Wunderground v.1.15,2013-07-03 01:55:00,
2013-07-02 22:00:00,59.0,58.7,30.05,ESE,117,0.0,1.0,99,0.00,,,0.54,Wunderground v.1.15,2013-07-03 02:00:00,
2013-07-02 22:05:00,58.9,58.6,30.05,ESE,117,0.0,2.0,99,0.00,,,0.54,Wunderground v.1.15,2013-07-03 02:05:00,
2013-07-02 22:10:00,58.9,58.6,30.06,NNE,21,0.0,0.0,99,0.00,,,0.54,Wunderground v.1.15,2013-07-03 02:10:00,
2013-07-02 22:15:00,58.9,58.6,30.05,NNE,21,0.0,1.0,99,0.00,,,0.54,Wunderground v.1.15,2013-07-03 02:15:00,
2013-07-02 22:20:00,58.7,58.4,30.06,NNE,21,0.0,0.0,99,0.00,,,0.54,Wunderground v.1.15,2013-07-03 02:20:00,
2013-07-02 22:25:00,58.8,58.5,30.06,NNE,21,0.0,2.0,99,0.00,,,0.54,Wunderground v.1.15,2013-07-03 02:25:00,
2013-07-02 22:31:00,58.4,58.1,30.06,NNE,21,0.0,0.0,99,0.00,,,0.54,Wunderground v.1.15,2013-07-03 02:31:00,
2013-07-02 22:32:00,58.4,58.1,30.06,NNE,21,0.0,0.0,99,0.00,,,0.54,Wunderground v.1.15,2013-07-03 02:32:00,
2013-07-02 22:37:00,58.6,58.3,30.06,NNE,21,0.0,0.0,99,0.00,,,0.54,Wunderground v.1.15,2013-07-03 02:37:00,
2013-07-02 22:42:00,58.7,58.4,30.06,NNE,21,0.0,2.0,99,0.00,,,0.54,Wunderground v.1.15,2013-07-03 02:42:00,
2013-07-02 22:46:00,58.8,58.5,30.05,NNE,21,0.0,2.0,99,0.00,,,0.54,Wunderground v.1.15,2013-07-03 02:46:00,
2013-07-02 22:51:00,58.8,58.5,30.05,NNE,21,0.0,0.0,99,0.00,,,0.54,Wunderground v.1.15,2013-07-03 02:51:00,
2013-07-02 22:56:00,58.6,58.3,30.05,NNE,21,0.0,1.0,99,0.00,,,0.54,Wunderground v.1.15,2013-07-03 02:56:00,
2013-07-02 23:01:00,58.7,58.4,30.05,NNE,21,0.0,0.0,99,0.00,,,0.54,Wunderground v.1.15,2013-07-03 03:01:00,
2013-07-02 23:02:00,58.7,58.4,30.05,NNE,21,0.0,0.0,99,0.00,,,0.54,Wunderground v.1.15,2013-07-03 03:02:00,
2013-07-02 23:07:00,58.8,58.5,30.05,NNE,21,0.0,2.0,99,0.00,,,0.54,Wunderground v.1.15,2013-07-03 03:07:00,
2013-07-02 23:12:00,58.9,58.6,30.05,NNE,21,0.0,0.0,99,0.00,,,0.54,Wunderground v.1.15,2013-07-03 03:12:00,
2013-07-02 23:17:00,58.3,58.0,30.05,NNE,21,0.0,0.0,99,0.00,,,0.54,Wunderground v.1.15,2013-07-03 03:17:00,
2013-07-02 23:20:00,57.8,57.2,30.05,NNE,21,0.0,0.0,98,0.00,,,0.54,Wunderground v.1.15,2013-07-03 03:20:00,
2013-07-02 23:25:00,57.5,57.2,30.05,NNE,21,0.0,0.0,99,0.00,,,0.54,Wunderground v.1.15,2013-07-03 03:25:00,
2013-07-02 23:30:00,57.1,56.5,30.05,NNE,21,0.0,0.0,98,0.00,,,0.54,Wunderground v.1.15,2013-07-03 03:30:00,
2013-07-02 23:35:00,57.5,57.2,30.05,NNE,21,0.0,0.0,99,0.00,,,0.54,Wunderground v.1.15,2013-07-03 03:35:00,
2013-07-02 23:39:00,58.1,57.8,30.05,NNE,21,0.0,0.0,99,0.00,,,0.54,Wunderground v.1.15,2013-07-03 03:39:00,
2013-07-02 23:44:00,58.6,58.3,30.05,NNE,21,0.0,0.0,99,0.00,,,0.54,Wunderground v.1.15,2013-07-03 03:44:00,
2013-07-02 23:49:00,58.7,58.4,30.05,NNE,21,0.0,0.0,99,0.00,,,0.54,Wunderground v.1.15,2013-07-03 03:49:00,
2013-07-02 23:54:00,57.7,57.4,30.05,NNE,21,0.0,0.0,99,0.00,,,0.54,Wunderground v.1.15,2013-07-03 03:54:00,
2013-07-02 23:59:00,57.6,57.3,30.04,NNE,21,0.0,0.0,99,0.00,,,0.54,Wunderground v.1.15,2013-07-03 03:59:00,